• In Austria
  • List of Countries
  • For 7 days
  • Water Temperature
  • Satellite Maps
  • Weather Map
  • News
  • Weather Widgets
  • user-avatar
    Login

    Hourly Weather Goncharovka

    Today, 23 October, Tuesday

    Time Temperature Precipitation Wind Pressure Humidity
    00:00 +4°C° 0.5 mm 4 mps 734 mmHg 87%
    01:00 +4°C° 0.5 mm 4 mps 734 mmHg 89%
    02:00 +4°C° 0.5 mm 3 mps 733 mmHg 90%
    03:00 +4°C° 0.5 mm 3 mps 733 mmHg 91%
    04:00 +4°C° 0.5 mm 3 mps 732 mmHg 91%
    05:00 +4°C° 0.5 mm 3 mps 732 mmHg 92%
    06:00 +4°C° 0.1 mm 3 mps 732 mmHg 92%
    07:00 +3°C° 0.1 mm 3 mps 732 mmHg 91%
    08:00 +4°C° 0.1 mm 2 mps 731 mmHg 91%
    09:00 +5°C° 0 mm 2 mps 731 mmHg 87%
    10:00 +5°C° 0 mm 2 mps 731 mmHg 82%
    11:00 +6°C° 0 mm 2 mps 730 mmHg 77%
    12:00 +6°C° 0 mm 2 mps 729 mmHg 74%
    13:00 +6°C° 0 mm 2 mps 729 mmHg 70%
    14:00 +7°C° 0 mm 2 mps 728 mmHg 67%
    15:00 +6°C° 0 mm 2 mps 727 mmHg 71%
    16:00 +5°C° 0 mm 2 mps 726 mmHg 75%
    17:00 +4°C° 0 mm 2 mps 726 mmHg 79%
    18:00 +4°C° 0 mm 2 mps 725 mmHg 80%
    19:00 +3°C° 0 mm 3 mps 724 mmHg 80%
    20:00 +3°C° 0 mm 3 mps 723 mmHg 81%
    21:00 +3°C° 0.1 mm 3 mps 722 mmHg 80%
    22:00 +3°C° 0.1 mm 4 mps 721 mmHg 79%
    23:00 +3°C° 0.1 mm 4 mps 720 mmHg 79%

    Tomorrow, 24 October, Wednesday

    Time Temperature Precipitation Wind Pressure Humidity
    00:00 +3°C° 0.2 mm 4 mps 719 mmHg 80%
    01:00 +3°C° 0.2 mm 4 mps 718 mmHg 81%
    02:00 +2°C° 0.2 mm 5 mps 717 mmHg 82%
    03:00 +2°C° 0.4 mm 5 mps 716 mmHg 83%
    04:00 +2°C° 0.4 mm 5 mps 715 mmHg 83%
    05:00 +2°C° 0.4 mm 5 mps 714 mmHg 84%
    06:00 +2°C° 0.3 mm 5 mps 714 mmHg 85%
    07:00 +3°C° 0.3 mm 4 mps 713 mmHg 86%
    08:00 +3°C° 0.3 mm 4 mps 713 mmHg 86%
    09:00 +3°C° 0.4 mm 4 mps 713 mmHg 86%
    10:00 +3°C° 0.4 mm 3 mps 713 mmHg 86%
    11:00 +4°C° 0.4 mm 3 mps 713 mmHg 86%
    12:00 +5°C° 0.7 mm 2 mps 713 mmHg 87%
    13:00 +5°C° 0.7 mm 2 mps 713 mmHg 88%
    14:00 +5°C° 0.7 mm 2 mps 713 mmHg 89%
    15:00 +5°C° 0.4 mm 2 mps 713 mmHg 91%
    16:00 +5°C° 0.4 mm 1 mps 714 mmHg 92%
    17:00 +5°C° 0.4 mm 1 mps 714 mmHg 94%
    18:00 +5°C° 0.3 mm 1 mps 714 mmHg 94%
    19:00 +4°C° 0.3 mm 2 mps 715 mmHg 94%
    20:00 +4°C° 0.3 mm 2 mps 715 mmHg 95%
    21:00 +4°C° 0.2 mm 2 mps 716 mmHg 94%
    22:00 +4°C° 0.2 mm 2 mps 716 mmHg 94%
    23:00 +4°C° 0.2 mm 2 mps 716 mmHg 93%

    Day after tomorrow, 25 October, Thursday

    Time Temperature Precipitation Wind Pressure Humidity
    00:00 +3°C° 0.2 mm 3 mps 716 mmHg 93%
    01:00 +3°C° 0.2 mm 3 mps 717 mmHg 92%
    02:00 +3°C° 0.2 mm 3 mps 717 mmHg 92%
    03:00 +3°C° 0.2 mm 4 mps 717 mmHg 90%
    04:00 +3°C° 0.2 mm 4 mps 717 mmHg 89%
    05:00 +1°C° 0.2 mm 4 mps 717 mmHg 88%
    06:00 +1°C° 0.1 mm 5 mps 717 mmHg 86%
    07:00 +1°C° 0.1 mm 5 mps 717 mmHg 84%
    08:00 +1°C° 0.1 mm 5 mps 717 mmHg 82%
    09:00 +1°C° 0 mm 5 mps 717 mmHg 80%
    10:00 +1°C° 0 mm 6 mps 717 mmHg 78%
    11:00 +1°C° 0 mm 6 mps 717 mmHg 76%
    12:00 +1°C° 0 mm 6 mps 717 mmHg 75%
    13:00 +1°C° 0 mm 6 mps 717 mmHg 74%
    14:00 +1°C° 0 mm 6 mps 717 mmHg 73%
    15:00 +1°C° 0 mm 6 mps 717 mmHg 74%
    16:00 +1°C° 0 mm 6 mps 717 mmHg 75%
    17:00 -1°C° 0 mm 6 mps 718 mmHg 76%
    18:00 -1°C° 0 mm 6 mps 718 mmHg 76%
    19:00 0°C° 0 mm 5 mps 718 mmHg 76%
    20:00 0°C° 0 mm 5 mps 719 mmHg 75%
    21:00 0°C° 0 mm 5 mps 719 mmHg 78%
    22:00 0°C° 0 mm 5 mps 719 mmHg 81%
    23:00 -1°C° 0 mm 5 mps 720 mmHg 84%

    26 October, Friday

    Time Temperature Precipitation Wind Pressure Humidity
    00:00 -1°C° 0 mm 5 mps 720 mmHg 84%
    01:00 -1°C° 0 mm 5 mps 721 mmHg 84%
    02:00 -1°C° 0 mm 4 mps 721 mmHg 84%
    03:00 -1°C° 0 mm 4 mps 722 mmHg 85%
    04:00 -1°C° 0 mm 4 mps 722 mmHg 86%
    05:00 -1°C° 0 mm 4 mps 723 mmHg 86%
    06:00 -1°C° 0 mm 4 mps 723 mmHg 87%
    07:00 -1°C° 0 mm 4 mps 724 mmHg 87%
    08:00 -1°C° 0 mm 4 mps 724 mmHg 88%
    09:00 0°C° 0 mm 4 mps 724 mmHg 86%
    10:00 0°C° 0 mm 4 mps 725 mmHg 84%
    11:00 +1°C° 0 mm 4 mps 725 mmHg 82%
    12:00 +1°C° 0.1 mm 4 mps 725 mmHg 81%
    13:00 +1°C° 0.1 mm 4 mps 726 mmHg 80%
    14:00 +1°C° 0.1 mm 4 mps 726 mmHg 79%
    15:00 +1°C° 0 mm 4 mps 726 mmHg 80%
    16:00 +1°C° 0 mm 4 mps 727 mmHg 81%
    17:00 +1°C° 0 mm 4 mps 727 mmHg 82%
    18:00 +1°C° 0.1 mm 3 mps 728 mmHg 83%
    19:00 +1°C° 0.1 mm 3 mps 728 mmHg 85%
    20:00 +1°C° 0.1 mm 3 mps 728 mmHg 87%
    21:00 0°C° 0 mm 3 mps 729 mmHg 89%
    22:00 0°C° 0 mm 3 mps 729 mmHg 91%
    23:00 0°C° 0 mm 3 mps 730 mmHg 93%

    27 October, Saturday

    Time Temperature Precipitation Wind Pressure Humidity
    00:00 -1°C° 0 mm 3 mps 730 mmHg 94%
    01:00 -1°C° 0 mm 3 mps 731 mmHg 95%
    02:00 -1°C° 0 mm 3 mps 731 mmHg 95%
    03:00 -1°C° 0 mm 2 mps 731 mmHg 96%
    04:00 -2°C° 0 mm 2 mps 732 mmHg 96%
    05:00 -2°C° 0 mm 2 mps 732 mmHg 96%
    06:00 -1°C° 0 mm 2 mps 732 mmHg 95%
    07:00 -1°C° 0 mm 2 mps 732 mmHg 93%
    08:00 -1°C° 0 mm 3 mps 732 mmHg 92%
    09:00 +1°C° 0 mm 3 mps 732 mmHg 87%
    10:00 +1°C° 0 mm 4 mps 732 mmHg 83%
    11:00 +3°C° 0 mm 4 mps 732 mmHg 78%
    12:00 +4°C° 0 mm 4 mps 731 mmHg 79%
    13:00 +3°C° 0 mm 5 mps 731 mmHg 80%
    14:00 +3°C° 0 mm 5 mps 730 mmHg 80%
    15:00 +3°C° 0.2 mm 5 mps 730 mmHg 82%
    16:00 +3°C° 0.2 mm 5 mps 730 mmHg 85%
    17:00 +3°C° 0.2 mm 6 mps 729 mmHg 87%
    18:00 +5°C° 0.1 mm 5 mps 729 mmHg 86%
    19:00 +5°C° 0.1 mm 5 mps 729 mmHg 85%
    20:00 +5°C° 0.1 mm 5 mps 729 mmHg 84%
    21:00 +5°C° 0.1 mm 5 mps 729 mmHg 84%
    22:00 +5°C° 0.1 mm 4 mps 729 mmHg 85%
    23:00 +5°C° 0.1 mm 4 mps 729 mmHg 86%

    28 October, Sunday

    Time Temperature Precipitation Wind Pressure Humidity
    00:00 +4°C° 0.1 mm 3 mps 729 mmHg 88%
    01:00 +4°C° 0.1 mm 3 mps 729 mmHg 90%
    02:00 +5°C° 0.1 mm 2 mps 729 mmHg 92%
    03:00 +5°C° 0.1 mm 2 mps 729 mmHg 93%
    04:00 +4°C° 0.1 mm 2 mps 729 mmHg 94%
    05:00 +4°C° 0.1 mm 2 mps 729 mmHg 96%
    06:00 +6°C° 0.4 mm 1 mps 729 mmHg 96%
    07:00 +6°C° 0.4 mm 1 mps 729 mmHg 96%
    08:00 +6°C° 0.4 mm 1 mps 729 mmHg 97%
    09:00 +6°C° 0.6 mm 1 mps 729 mmHg 96%
    10:00 +6°C° 0.6 mm 1 mps 729 mmHg 96%
    11:00 +7°C° 0.6 mm 1 mps 729 mmHg 96%
    12:00 +7°C° 1.4 mm 1 mps 729 mmHg 96%
    13:00 +7°C° 1.4 mm 1 mps 728 mmHg 97%
    14:00 +6°C° 1.4 mm 2 mps 728 mmHg 98%
    15:00 +6°C° 2 mm 2 mps 727 mmHg 98%
    16:00 +6°C° 2 mm 2 mps 727 mmHg 97%
    17:00 +6°C° 2 mm 2 mps 726 mmHg 97%
    18:00 +7°C° 0.5 mm 2 mps 726 mmHg 96%
    19:00 +8°C° 0.5 mm 3 mps 726 mmHg 95%
    20:00 +8°C° 0.5 mm 3 mps 726 mmHg 94%
    21:00 +8°C° 0.2 mm 4 mps 726 mmHg 92%
    22:00 +8°C° 0.2 mm 5 mps 726 mmHg 90%
    23:00 +9°C° 0.2 mm 6 mps 726 mmHg 88%

    29 October, Monday

    Time Temperature Precipitation Wind Pressure Humidity
    00:00 +7°C° 0.1 mm 6 mps 727 mmHg 86%
    01:00 +5°C° 0.1 mm 6 mps 728 mmHg 83%
    02:00 +4°C° 0.1 mm 7 mps 729 mmHg 81%
    03:00 +3°C° 0 mm 6 mps 730 mmHg 81%
    04:00 +3°C° 0 mm 6 mps 731 mmHg 81%
    05:00 +2°C° 0 mm 5 mps 732 mmHg 81%
    06:00 +2°C° 0 mm 5 mps 733 mmHg 81%
    07:00 +2°C° 0 mm 5 mps 734 mmHg 82%
    08:00 +3°C° 0 mm 5 mps 735 mmHg 82%
    09:00 +3°C° 0 mm 5 mps 736 mmHg 80%
    10:00 +3°C° 0 mm 5 mps 736 mmHg 78%
    11:00 +4°C° 0 mm 4 mps 737 mmHg 76%
    12:00 +4°C° 0 mm 4 mps 738 mmHg 77%
    13:00 +4°C° 0 mm 4 mps 738 mmHg 77%
    14:00 +4°C° 0 mm 4 mps 739 mmHg 78%
    15:00 +4°C° 0 mm 3 mps 739 mmHg 81%
    16:00 +3°C° 0 mm 3 mps 740 mmHg 83%
    17:00 +4°C° 0 mm 2 mps 740 mmHg 86%
    18:00 +3°C° 0 mm 2 mps 741 mmHg 87%
    19:00 +3°C° 0 mm 2 mps 741 mmHg 88%
    20:00 +3°C° 0 mm 2 mps 741 mmHg 89%
    21:00 +3°C° 0 mm 1 mps 742 mmHg 89%
    22:00 +3°C° 0 mm 1 mps 742 mmHg 89%
    23:00 +3°C° 0 mm 1 mps 742 mmHg 89%
    Show more